Moline, IL

1:20 AM CDT on July 24, 2017 (GMT -0500)
Quad-City International

Weather History for KMLI - October, 2010

Change the Weather History Date:

Wednesday, October 13, 2010

  Actual Average Record
Temperature  
Mean Temperature 56 °F 54 °F  
Max Temperature 69 °F 65 °F 90 °F (1975)
Min Temperature 43 °F 43 °F 23 °F (1909)
Degree Days  
Heating Degree Days 9 11  
Month to date heating degree days 78 122  
Since 1 July heating degree days 127 226  
Cooling Degree Days 0 0  
Month to date cooling degree days 12 11  
Year to date cooling degree days 1285 1000  
Growing Degree Days 7 (Base 50)    
Moisture  
Dew Point 40 °F    
Average Humidity 50    
Maximum Humidity 76    
Minimum Humidity 24    
Precipitation  
Precipitation 0.00 in 0.09 in 1.18 in (1960)
Month to date precipitation 0.03 1.22  
Year to date precipitation 39.86 31.47  
Snow  
Snow 0.00 in 0.00 in - ()
Month to date snowfall 0.0 0.0  
Since 1 July snowfall 0.0 0.0  
Since 1 September snowfall 0.0 0.0  
Snow Depth 0.00 in    
Sea Level Pressure  
Sea Level Pressure 30.12 in    
Wind  
Wind Speed 8 mph (NNW)    
Max Wind Speed 22 mph    
Max Gust Speed 28 mph    
Visibility 10 miles    
Events      
T = Trace of Precipitation, MM = Missing Value Source: NWS Daily Summary

Daily Weather History Graph

Daily Weather History Graph

Search for Another Location

Airport or City:

Trip Planner

Search our weather history database for the weather conditions in past years. The results will help you decide how hot, cold, wet, or windy it might be!

Date:

Astronomy

Oct. 13, 2010 Rise Set
Actual Time 7:11 AM CDT 6:24 PM CDT
Civil Twilight 6:43 AM CDT 6:51 PM CDT
Nautical Twilight 6:11 AM CDT 7:23 PM CDT
Astronomical Twilight 5:39 AM CDT 7:55 PM CDT
Moon 1:35 PM CDT (10/13) 11:00 PM CDT (10/13)
Length of Visible Light 12h 08m
Length of Day
11h 12m
Waxing Crescent, 38% of the Moon is Illuminated
Oct 13
Waxing Crescent
Oct 14
First Quarter
Oct 22
Full
Oct 30
Last Quarter
Nov 5
New

Hourly Weather History & Observations

Time (CDT) Temp. Dew Point Humidity Pressure Visibility Wind Dir Wind Speed Gust Speed Precip Events Conditions
12:52 AM 64.9 °F 53.1 °F 65% 30.01 in 10.0 mi NW 11.5 mph - N/A   Clear
1:52 AM 64.0 °F 51.1 °F 63% 30.03 in 10.0 mi NNW 9.2 mph 19.6 mph N/A   Clear
2:52 AM 63.0 °F 50.0 °F 63% 30.03 in 10.0 mi NNW 10.4 mph 16.1 mph N/A   Clear
3:52 AM 63.0 °F 48.9 °F 60% 30.04 in 10.0 mi North 9.2 mph - N/A   Mostly Cloudy
4:52 AM 61.0 °F 48.9 °F 64% 30.05 in 10.0 mi NNW 6.9 mph - N/A   Scattered Clouds
5:52 AM 59.0 °F 50.0 °F 72% 30.07 in 10.0 mi NNW 10.4 mph - N/A   Clear
6:52 AM 57.0 °F 48.0 °F 72% 30.09 in 10.0 mi NNW 10.4 mph - N/A   Clear
7:52 AM 55.9 °F 45.0 °F 67% 30.13 in 10.0 mi NNW 11.5 mph 19.6 mph N/A   Clear
8:52 AM 57.0 °F 44.1 °F 62% 30.15 in 10.0 mi NNW 9.2 mph - N/A   Clear
9:52 AM 57.9 °F 43.0 °F 58% 30.16 in 10.0 mi NNW 10.4 mph - N/A   Partly Cloudy
10:52 AM 63.0 °F 41.0 °F 45% 30.17 in 10.0 mi North 9.2 mph - N/A   Clear
11:52 AM 64.9 °F 37.0 °F 36% 30.16 in 10.0 mi NNW 12.7 mph - N/A   Partly Cloudy
12:52 PM 66.9 °F 36.0 °F 32% 30.15 in 10.0 mi North 12.7 mph 20.7 mph N/A   Clear
1:52 PM 68.0 °F 36.0 °F 31% 30.14 in 10.0 mi NNW 12.7 mph 24.2 mph N/A   Clear
2:52 PM 68.0 °F 33.1 °F 27% 30.14 in 10.0 mi NW 11.5 mph 25.3 mph N/A   Clear
3:52 PM 68.0 °F 30.9 °F 25% 30.13 in 10.0 mi NW 13.8 mph 24.2 mph N/A   Clear
4:52 PM 66.0 °F 30.0 °F 26% 30.14 in 10.0 mi NW 19.6 mph - N/A   Clear
5:52 PM 64.0 °F 28.9 °F 27% 30.14 in 10.0 mi NNW 8.1 mph - N/A   Clear
6:52 PM 60.1 °F 30.0 °F 32% 30.16 in 10.0 mi NNW 5.8 mph - N/A   Clear
7:52 PM 59.0 °F 30.0 °F 33% 30.17 in 10.0 mi NW 4.6 mph - N/A   Clear
8:52 PM 51.1 °F 36.0 °F 56% 30.18 in 10.0 mi Calm Calm - N/A   Clear
9:52 PM 48.0 °F 37.9 °F 68% 30.18 in 10.0 mi Calm Calm - N/A   Clear
10:52 PM 46.9 °F 37.9 °F 71% 30.19 in 10.0 mi Calm Calm - N/A   Clear
11:52 PM 45.0 °F 37.0 °F 74% 30.19 in 10.0 mi Calm Calm - N/A   Clear